When you browse on this site, cookies collect data to enhance your experience and personalize the content and advertising you see.
Visit our Privacy Policy to learn more. By continuing to use the site, you agree to this use of cookies and data.
  • In Romania
  • List of Countries
  • For 7 days
  • Water Temperature
  • Satellite Maps
  • Weather Map
  • Weather Widgets
  • user-avatar
    Login

    Hourly Weather Allentown

    Today, 21 April, Sunday

    Time Temperature Precipitation Wind Pressure Humidity
    00:00 +14°C° 0 mm 2 mps 749 mmHg 73%
    01:00 +14°C° 0 mm 1 mps 749 mmHg 75%
    02:00 +14°C° 0 mm 1 mps 749 mmHg 78%
    03:00 +13°C° 0 mm 1 mps 749 mmHg 80%
    04:00 +13°C° 0 mm 1 mps 750 mmHg 83%
    05:00 +13°C° 0.1 mm 2 mps 750 mmHg 82%
    06:00 +13°C° 0.1 mm 2 mps 751 mmHg 81%
    07:00 +13°C° 0.1 mm 3 mps 751 mmHg 79%
    08:00 +14°C° 0 mm 3 mps 751 mmHg 72%
    09:00 +16°C° 0 mm 3 mps 752 mmHg 64%
    10:00 +17°C° 0 mm 3 mps 752 mmHg 56%
    11:00 +18°C° 0 mm 3 mps 752 mmHg 53%
    12:00 +19°C° 0 mm 2 mps 752 mmHg 49%
    13:00 +20°C° 0 mm 2 mps 752 mmHg 46%
    14:00 +20°C° 0 mm 2 mps 752 mmHg 47%
    15:00 +21°C° 0 mm 1 mps 752 mmHg 47%
    16:00 +21°C° 0 mm 1 mps 752 mmHg 47%
    17:00 +19°C° 0 mm 1 mps 752 mmHg 53%
    18:00 +16°C° 0 mm 1 mps 753 mmHg 59%
    19:00 +15°C° 0 mm 1 mps 753 mmHg 64%
    20:00 +14°C° 0 mm 1 mps 753 mmHg 69%
    21:00 +13°C° 0 mm 1 mps 754 mmHg 73%
    22:00 +12°C° 0 mm 0 mps 754 mmHg 77%
    23:00 +12°C° 0 mm 1 mps 754 mmHg 79%

    Tomorrow, 22 April, Monday

    Time Temperature Precipitation Wind Pressure Humidity
    00:00 +12°C° 0 mm 1 mps 754 mmHg 81%
    01:00 +12°C° 0 mm 1 mps 754 mmHg 83%
    02:00 +11°C° 0 mm 1 mps 754 mmHg 84%
    03:00 +11°C° 0 mm 1 mps 754 mmHg 85%
    04:00 +11°C° 0 mm 1 mps 754 mmHg 86%
    05:00 +11°C° 0 mm 1 mps 754 mmHg 84%
    06:00 +12°C° 0 mm 1 mps 755 mmHg 82%
    07:00 +13°C° 0 mm 2 mps 755 mmHg 80%
    08:00 +15°C° 0 mm 2 mps 755 mmHg 73%
    09:00 +17°C° 0 mm 2 mps 755 mmHg 66%
    10:00 +19°C° 0 mm 2 mps 755 mmHg 59%
    11:00 +20°C° 0.1 mm 2 mps 755 mmHg 58%
    12:00 +21°C° 0.1 mm 3 mps 754 mmHg 56%
    13:00 +21°C° 0.1 mm 3 mps 754 mmHg 55%
    14:00 +21°C° 0.3 mm 3 mps 754 mmHg 57%
    15:00 +21°C° 0.3 mm 4 mps 753 mmHg 58%
    16:00 +21°C° 0.3 mm 4 mps 753 mmHg 60%
    17:00 +20°C° 0.1 mm 3 mps 753 mmHg 65%
    18:00 +18°C° 0.1 mm 3 mps 753 mmHg 71%
    19:00 +16°C° 0.1 mm 2 mps 754 mmHg 76%
    20:00 +15°C° 0 mm 2 mps 754 mmHg 79%
    21:00 +15°C° 0 mm 2 mps 754 mmHg 83%
    22:00 +14°C° 0 mm 2 mps 754 mmHg 86%
    23:00 +14°C° 0 mm 2 mps 754 mmHg 87%

    Day after tomorrow, 23 April, Tuesday

    Time Temperature Precipitation Wind Pressure Humidity
    00:00 +13°C° 0 mm 2 mps 754 mmHg 89%
    01:00 +13°C° 0 mm 2 mps 754 mmHg 90%
    02:00 +13°C° 0 mm 2 mps 754 mmHg 91%
    03:00 +12°C° 0 mm 1 mps 754 mmHg 91%
    04:00 +12°C° 0 mm 1 mps 754 mmHg 92%
    05:00 +13°C° 0 mm 1 mps 754 mmHg 88%
    06:00 +14°C° 0 mm 1 mps 754 mmHg 84%
    07:00 +15°C° 0 mm 1 mps 755 mmHg 81%
    08:00 +18°C° 0 mm 1 mps 754 mmHg 72%
    09:00 +21°C° 0 mm 1 mps 754 mmHg 64%
    10:00 +23°C° 0 mm 1 mps 754 mmHg 55%
    11:00 +24°C° 0 mm 1 mps 753 mmHg 53%
    12:00 +25°C° 0 mm 2 mps 753 mmHg 51%
    13:00 +25°C° 0 mm 3 mps 752 mmHg 48%
    14:00 +25°C° 0 mm 3 mps 751 mmHg 51%
    15:00 +25°C° 0 mm 4 mps 751 mmHg 53%
    16:00 +26°C° 0 mm 4 mps 750 mmHg 56%
    17:00 +24°C° 0 mm 3 mps 750 mmHg 62%
    18:00 +21°C° 0 mm 3 mps 750 mmHg 69%
    19:00 +20°C° 0 mm 2 mps 749 mmHg 75%
    20:00 +19°C° 0 mm 3 mps 749 mmHg 74%
    21:00 +19°C° 0 mm 3 mps 749 mmHg 73%
    22:00 +18°C° 0 mm 3 mps 749 mmHg 73%
    23:00 +18°C° 0.1 mm 3 mps 748 mmHg 74%

    24 April, Wednesday

    Time Temperature Precipitation Wind Pressure Humidity
    00:00 +18°C° 0.1 mm 3 mps 748 mmHg 75%
    01:00 +18°C° 0.1 mm 4 mps 747 mmHg 76%
    02:00 +18°C° 0.2 mm 4 mps 747 mmHg 81%
    03:00 +18°C° 0.2 mm 4 mps 747 mmHg 85%
    04:00 +17°C° 0.2 mm 4 mps 747 mmHg 90%
    05:00 +17°C° 0 mm 4 mps 748 mmHg 86%
    06:00 +15°C° 0 mm 4 mps 748 mmHg 83%
    07:00 +15°C° 0 mm 5 mps 749 mmHg 80%
    08:00 +14°C° 0 mm 4 mps 749 mmHg 75%
    09:00 +14°C° 0 mm 4 mps 749 mmHg 69%
    10:00 +14°C° 0 mm 4 mps 750 mmHg 64%
    11:00 +17°C° 0 mm 4 mps 750 mmHg 58%
    12:00 +17°C° 0 mm 5 mps 749 mmHg 52%
    13:00 +20°C° 0 mm 5 mps 749 mmHg 46%
    14:00 +20°C° 0 mm 5 mps 749 mmHg 46%
    15:00 +20°C° 0 mm 5 mps 749 mmHg 45%
    16:00 +20°C° 0 mm 5 mps 749 mmHg 44%
    17:00 +18°C° 0 mm 4 mps 750 mmHg 49%
    18:00 +17°C° 0 mm 3 mps 750 mmHg 54%
    19:00 +14°C° 0 mm 3 mps 751 mmHg 58%
    20:00 +13°C° 0 mm 3 mps 751 mmHg 62%
    21:00 +12°C° 0 mm 2 mps 752 mmHg 66%
    22:00 +10°C° 0 mm 2 mps 752 mmHg 70%
    23:00 +9°C° 0 mm 2 mps 752 mmHg 73%

    25 April, Thursday

    Time Temperature Precipitation Wind Pressure Humidity
    00:00 +9°C° 0 mm 2 mps 752 mmHg 75%
    01:00 +9°C° 0 mm 1 mps 753 mmHg 77%
    02:00 +8°C° 0 mm 1 mps 753 mmHg 79%
    03:00 +8°C° 0 mm 1 mps 753 mmHg 80%
    04:00 +7°C° 0 mm 1 mps 753 mmHg 82%
    05:00 +8°C° 0 mm 1 mps 754 mmHg 77%
    06:00 +9°C° 0 mm 1 mps 754 mmHg 73%
    07:00 +9°C° 0 mm 2 mps 754 mmHg 68%
    08:00 +12°C° 0 mm 2 mps 754 mmHg 62%
    09:00 +14°C° 0 mm 2 mps 754 mmHg 56%
    10:00 +15°C° 0 mm 2 mps 754 mmHg 50%
    11:00 +16°C° 0 mm 2 mps 754 mmHg 47%
    12:00 +18°C° 0 mm 2 mps 753 mmHg 43%
    13:00 +19°C° 0 mm 2 mps 753 mmHg 40%
    14:00 +18°C° 0 mm 2 mps 753 mmHg 45%
    15:00 +18°C° 0 mm 2 mps 753 mmHg 51%
    16:00 +17°C° 0 mm 2 mps 752 mmHg 56%
    17:00 +16°C° 0 mm 2 mps 752 mmHg 62%
    18:00 +14°C° 0 mm 2 mps 753 mmHg 68%
    19:00 +13°C° 0 mm 2 mps 753 mmHg 74%
    20:00 +12°C° 0 mm 1 mps 753 mmHg 76%
    21:00 +11°C° 0 mm 1 mps 753 mmHg 79%
    22:00 +10°C° 0 mm 0 mps 753 mmHg 82%
    23:00 +10°C° 0 mm 0 mps 753 mmHg 79%

    26 April, Friday

    Time Temperature Precipitation Wind Pressure Humidity
    00:00 +11°C° 0 mm 0 mps 753 mmHg 76%
    01:00 +11°C° 0 mm 0 mps 752 mmHg 72%
    02:00 +12°C° 0.5 mm 1 mps 752 mmHg 78%
    03:00 +12°C° 0.5 mm 1 mps 752 mmHg 83%
    04:00 +11°C° 0.5 mm 1 mps 751 mmHg 88%
    05:00 +12°C° 1.8 mm 2 mps 751 mmHg 90%
    06:00 +12°C° 1.8 mm 2 mps 751 mmHg 93%
    07:00 +12°C° 1.8 mm 2 mps 751 mmHg 95%
    08:00 +12°C° 2.4 mm 2 mps 750 mmHg 95%
    09:00 +12°C° 2.4 mm 2 mps 750 mmHg 95%
    10:00 +12°C° 2.4 mm 2 mps 750 mmHg 95%
    11:00 +12°C° 1.9 mm 2 mps 749 mmHg 95%
    12:00 +12°C° 1.9 mm 2 mps 749 mmHg 95%
    13:00 +12°C° 1.9 mm 2 mps 749 mmHg 95%
    14:00 +12°C° 0.3 mm 2 mps 749 mmHg 95%
    15:00 +12°C° 0.3 mm 2 mps 749 mmHg 95%
    16:00 +12°C° 0.3 mm 2 mps 749 mmHg 95%
    17:00 +11°C° 0 mm 3 mps 749 mmHg 92%
    18:00 +11°C° 0 mm 3 mps 750 mmHg 90%
    19:00 +11°C° 0 mm 4 mps 751 mmHg 88%
    20:00 +10°C° 0 mm 4 mps 751 mmHg 88%
    21:00 +9°C° 0 mm 3 mps 752 mmHg 88%
    22:00 +8°C° 0 mm 3 mps 753 mmHg 88%
    23:00 +8°C° 0 mm 2 mps 753 mmHg 89%
    Show more